Terug naar catalogus

STARLINK-35025

ActiefCommunicatieVLEO
NORAD 65430·PAYLOAD·🇺🇸 United States

Gelanceerd Aug 31, 2025 vanaf Cape Canaveral Space Force Station

Loading…

Volgende Passages (komende 24 uur)

TLE

VersSource: CelesTrak SupGP

Epoch: Sep 14, 2026, 21:09 UTC

1 65430C 25192AC  26257.88173611  .00007159  00000+0  21160-3 0  2575
2 65430  53.1573  70.1123 0001207  87.1988 110.6617 15.34375175    13

Volg STARLINK-35025 in realtime met AllMySat

Download on the App Store